Regional Weather Roundup
Issued by NWS Portland, ME

Home | Current Version | Previous Version | Text Only | Print | Product List | Glossary On
Versions: 1 2 3 4 5 6 7 8 9 10 11 12 13 14 15 16 17 18 19 20 21 22 23 24 25 26 27 28 29 30 31 32 33 34 35 36 37 38 39 40 41 42 43 44 45 46 47 48 49 50
000
ASUS41 KGYX 280205
RWRGYX
WEATHER ROUNDUP FOR MAINE AND NEW HAMPSHIRE
NATIONAL WEATHER SERVICE GRAY ME
1000 PM EDT WED AUG 27 2014

MEZ002-005-006-010-012-015-018-020-021-024-026-027-029-280300-
MAINE

CITY           SKY/WX    TMP DP  RH WIND       PRES   REMARKS
PORTLAND       MOCLDY    77  65  66 W3        29.84S
SANFORD        MOCLDY    70  63  78 SW3       29.85F
BAR HARBOR     PTCLDY    64  63  94 CALM      29.83S
WISCASSET      PTCLDY    69  67  93 CALM      29.85R
ROCKLAND       PTCLDY    66  64  94 NW5       29.81S
FRYEBURG       CLOUDY    74  60  61 N7        29.88R
LEWISTONAUBURN CLOUDY    73  63  68 NW6       29.86F
AUGUSTA        MOCLDY    72  61  68 NW5       29.86R
WATERVILLE     MOCLDY    72  61  68 N6        29.82S
BANGOR         PTCLDY    71  60  68 NW9       29.85S
GREENVILLE       N/A     64  57  78 CALM      29.89S
MILLINOCKET    CLOUDY    70  56  61 CALM      29.87S
HOULTON        CLOUDY    63  59  87 E3        29.83F
PRESQUE ISLE   CLOUDY    66  54  63 N5        29.84S
FRENCHVILLE    CLOUDY    61  53  75 NW8       29.85S
CARIBOU        CLOUDY    64  55  72 N3        29.84S
$$

NHZ002-005-008-009-011-012-014-280300-
NEW HAMPSHIRE

CITY           SKY/WX    TMP DP  RH WIND       PRES   REMARKS
PORTSMOUTH     MOCLDY    79  69  71 W6        29.83F
ROCHESTER      MOCLDY    77  68  73 W6        29.85S
NASHUA         MOCLDY    77  70  79 CALM      29.87F
MANCHESTER     MOCLDY    78  69  73 SW5       29.84F
CONCORD        PTCLDY    73  67  81 NW7       29.86F
LACONIA        CLOUDY    70  66  88 NW6       29.87F
PLYMOUTH       MOCLDY    69  67  95 NW5       29.89F
BERLIN         MOCLDY    67  60  78 NW3       29.92F
WHITEFIELD     MOCLDY    69  58  67 SW3       29.93F
JAFFREY        PTCLDY    71  65  81 CALM      29.92F
LEBANON        MOCLDY    68  65  90 CALM      29.91S
MT WASHINGTON  FOG       46  46 100 W32         N/A  VSB 0
$$

VTZ005-007-008-280300-
VERMONT

CITY           SKY/WX    TMP DP  RH WIND       PRES   REMARKS
ST JOHNSBURY     N/A     67  59  75 MISG      29.91S
MONTPELIER     CLOUDY    64  61  90 CALM      29.98S
BURLINGTON     CLOUDY    70  58  65 N3        29.93S
$$

MAZ007-012-024-CTZ003-RIZ002-NYZ038-NYZ072-280300-
SOUTHERN NEW ENGLAND AND NY

CITY           SKY/WX    TMP DP  RH WIND       PRES   REMARKS
BOSTON         LGT RAIN  75  69  81 SW10      29.85F
WORCESTER      TSTM      70  68  93 W10       29.92S
NANTUCKET      FOG       66  66 100 S6        29.91F VSB 3/4
PROVIDENCE     PTCLDY    73  63  70 SW6       29.90F
HARTFORD       PTCLDY    75  71  87 W6        29.89S
ALBANY         CLOUDY    72  57  59 W12       29.93F
NEW YORK CITY  MOCLDY    79  66  64 E8        29.89R
$$

ANZ081-ANZ082-ANZ150-NHZ014-MEZ023>029-280300-
COASTAL MARINE OBSERVATIONS

STATION/POSITION TIME  TEMP    WIND        PRES    WAVE
                       AIR SEA DIR/SP/G            HT/PER
                 (UTC) (F)     (DEG/KT/KT) (MB)    (FT/S)
MATINICUS ROCK   0100          250/ 10/ 10 1009.5F
PORTLAND WX BUOY 0150   75 62  250/  8/  8 1009.8F   3/ 8
WELLS            0100   78 66  280/  4/  5 1009.6R
ISLE OF SHOALS   0100   81     250/ 12/ 12 1009.9R
JEFFREYS LEDGE   0121      67                N/A     4/ 8
CASHES LEDGE BUO 0150   70 67              1009.4F   5/10
$$

.............KEY..............
   WCI - WIND CHILL
   TC  - TEMPERATURE IN CELSIUS
   VSB - VISIBILITY IN MILES
   HX  - HEAT INDEX
   FAIR- INDICATES FEW OR NO CLOUDS BELOW 12,000 FT, WITH NO
         SIGNIFICANT WEATHER AND/OR OBSTRUCTIONS TO VISIBILITY.





USA.gov is the U.S. government's official web portal to all federal, state and local government web resources and services.